Simultaneous Nadir Overpasses (SNOs) Predictions

Prediction of SNOs between GOES-16 and TERRA Satellite Orbit:

Table of predicted SNOs for the next 14.0 days since TLE Epoch: 6/25/2022
Index Date Time (GOES-16) GOES-16 Lat,Lon TERRA Lat,Lon Distance(km) Time Diff (sec)
1 06/26/2022 15:08:55 0.02, -75.21 -0.59, -72.36 323.46 80
2 06/27/2022 03:27:37 -0.02, -75.20 -0.53, -77.56 268.34 80
3 06/29/2022 03:18:02 -0.02, -75.21 0.13, -74.60 68.97 80
4 07/01/2022 03:03:06 -0.02, -75.22 0.73, -71.64 406.64 80
5 07/01/2022 15:24:21 0.02, -75.24 0.33, -76.81 178.03 80
6 07/03/2022 15:14:45 0.02, -75.26 -0.29, -73.84 160.58 80
7 07/04/2022 03:36:08 -0.02, -75.25 -0.82, -79.04 430.55 80
8 07/05/2022 15:02:29 0.02, -75.28 -0.91, -70.88 499.86 80
9 07/06/2022 03:23:52 -0.02, -75.28 -0.20, -76.08 91.11 80
10 07/08/2022 03:08:56 -0.01, -75.31 0.44, -73.12 248.82 80
11 07/08/2022 15:30:11 0.01, -75.33 0.62, -78.28 335.45 80
